Wetbulb
45.25 45.10 47.16 48.20 48.33 48.60 48.18 47.82 47.72 47.94 48.02 47.28 45.92 45.71 45.55 45.10 45.75 45.73 46.27 46.96 46.11 45.95 46.84 46.53 46.61 46.75 46.17 45.80 46.55 48.56 48.51 48.77 48.61 52.01 52.19 49.76 49.12 49.97 51.05 52.64 53.18 52.29 53.15
45.55 45.53 46.52 47.09 46.86 46.64 46.75 47.38 48.46 48.11 48.20 47.97 47.54 46.44 46.27 46.43 46.50 46.38 45.62 46.54 46.86 46.14 46.09 45.74 46.18 47.00 46.35 46.98 47.01 47.23 48.23 49.35 49.46 48.07 49.20 48.12 48.08 49.35 51.15 50.42 51.50 52.29 51.80
45.60 45.21 45.35 45.96 45.89 45.60 46.07 46.69 47.99 47.77 47.93 48.13 47.80 47.14 46.54 46.80 47.12 47.97 46.46 45.99 45.95 45.32 45.26 46.13 46.23 47.27 46.43 46.82 46.82 47.14 47.36 49.13 50.63 48.23 46.60 48.03 48.10 48.99 49.09 50.95 51.06 50.91 51.73
45.87 45.53 45.09 45.19 45.65 45.50 45.86 46.36 47.38 47.66 47.46 47.79 47.92 47.35 47.47 46.98 47.76 47.77 45.59 44.22 44.18 44.06 44.33 45.42 46.54 48.11 47.63 49.07 46.82 46.44 46.64 47.05 48.10 46.84 45.86 45.82 46.60 47.32 47.88 47.40 47.59 49.59 48.01
46.08 46.07 45.58 46.00 46.54 45.98 45.90 45.99 46.84 47.60 47.81 48.31 47.99 48.09 47.75 47.59 47.19 48.06 45.58 44.42 44.13 43.82 44.40 44.77 47.70 48.20 50.24 50.80 47.52 46.24 46.20 45.84 46.26 46.06 45.39 45.35 45.03 45.24 44.30 45.91 46.46 47.32 47.05
45.88 45.90 46.09 46.18 46.39 45.79 45.54 45.30 45.44 46.15 47.14 47.65 47.94 47.32 46.11 46.80 46.86 48.03 48.95 45.83 46.00 44.57 43.52 43.73 46.40 48.46 46.11 47.97 49.72 50.16 48.61 45.77 44.71 44.63 43.99 43.07 43.13 44.72 45.97 45.26 46.59 46.29 44.37
45.22 46.15 46.43 46.27 45.77 45.43 45.35 45.42 45.10 45.26 46.17 46.50 46.96 47.80 46.84 47.51 46.30 46.30 48.08 47.32 46.32 46.16 45.39 44.72 44.13 45.94 47.66 45.22 45.76 47.06 47.79 48.32 47.80 45.82 43.90 44.10 44.64 45.63 46.66 45.17 44.96 45.05 44.96
44.86 45.24 45.88 46.27 45.81 45.49 45.03 44.39 44.67 44.78 45.46 46.17 46.57 46.88 47.07 47.10 45.86 45.29 46.64 46.98 46.71 46.25 46.04 45.96 45.03 45.07 46.22 45.74 45.12 45.57 46.22 46.57 46.22 46.08 46.54 46.25 47.12 47.61 47.95 47.86 46.87 45.98 46.95
44.52 44.84 45.43 46.29 45.41 45.21 44.60 44.24 44.45 43.81 44.46 44.97 45.60 46.40 45.90 45.92 44.77 43.95 46.20 47.02 46.16 45.98 46.48 46.54 45.67 45.20 44.53 45.38 45.19 45.40 45.30 45.76 47.42 46.64 46.27 45.06 44.66 45.48 47.33 47.76 45.58 46.43 44.13
44.52 44.98 45.40 46.41 45.71 44.72 44.53 44.61 44.29 43.66 44.01 44.63 45.03 46.03 46.41 45.89 43.77 42.92 44.86 46.87 45.79 45.63 47.28 46.44 46.14 44.90 43.49 43.58 45.73 45.49 44.53 44.22 44.83 45.24 44.92 44.99 45.03 45.36 45.95 46.68 47.73 45.93 45.59
45.43 45.36 45.78 45.92 46.31 44.97 44.65 45.33 44.91 44.19 43.85 44.00 44.55 45.31 45.81 45.82 45.03 42.94 42.57 46.37 46.43 45.54 45.39 45.18 45.96 43.88 42.71 42.76 43.38 45.17 44.81 46.04 45.05 45.36 45.27 44.67 44.65 44.30 44.25 44.41 45.14 45.15 43.41
45.62 44.93 44.98 45.36 45.95 46.16 44.78 44.39 45.20 44.60 43.86 43.79 44.20 44.65 45.23 45.68 44.65 43.41 42.37 42.59 45.66 46.14 45.52 45.87 45.63 42.32 42.06 42.39 43.96 42.40 42.87 44.07 44.63 44.43 44.31 44.75 44.10 42.97 44.48 45.23 44.70 45.04 45.89
45.34 44.63 44.41 45.01 45.15 46.17 45.87 45.54 44.58 44.94 44.92 44.66 43.92 43.75 43.57 45.57 45.28 43.15 42.69 42.43 44.84 45.85 47.40 45.71 43.80 42.88 43.37 44.36 43.74 43.87 43.82 44.14 42.90 44.43 43.86 44.17 44.77 44.99 45.28 45.21 46.18 46.29 45.32
44.78 44.51 44.37 43.93 44.60 45.40 46.00 45.54 45.88 44.51 44.59 44.12 43.89 43.08 43.45 44.43 43.95 43.24 43.83 44.60 44.55 46.04 46.79 47.07 45.92 45.25 44.57 45.52 45.54 45.07 45.21 45.21 44.24 43.94 43.78 44.20 44.76 44.33 43.83 44.54 43.48 43.64 42.60
44.26 44.09 44.33 43.94 44.15 45.38 46.57 47.55 46.52 46.71 45.55 44.92 45.09 43.69 43.36 43.85 43.83 40.12 40.34 42.48 43.21 43.41 45.03 45.75 44.45 44.85 44.87 45.09 45.34 45.47 44.71 44.57 44.04 44.35 43.81 43.37 43.29 43.41 43.20 43.90 43.26 42.98 42.00
43.92 43.65 44.00 43.89 44.17 45.98 45.95 47.55 44.00 42.40 41.55 40.89 40.25 41.09 44.07 41.66 39.33 39.34 39.47 39.57 39.50 39.96 43.96 42.99 43.31 42.05 42.15 42.67 43.77 44.65 45.77 44.89 43.58 44.05 43.46 43.19 42.68 42.49 43.09 43.50 44.04 42.83 41.92
44.28 44.07 44.74 45.60 46.04 45.80 46.15 47.19 46.24 45.50 42.28 41.44 41.16 40.63 39.09 39.44 39.18 39.09 39.26 39.52 39.54 41.43 42.93 42.88 42.44 42.49 41.29 41.68 41.92 42.72 43.54 45.21 45.60 43.57 43.72 43.30 43.02 42.90 42.55 42.84 43.61 43.44 43.11
45.69 42.59 45.00 45.61 45.69 45.89 47.11 47.13 46.57 45.60 45.35 45.10 42.75 41.56 40.44 38.78 39.46 39.30 39.06 41.63 43.10 42.92 42.91 42.50 42.27 43.23 41.81 40.76 41.55 41.43 42.24 43.44 44.52 45.59 44.48 44.36 43.60 43.23 43.20 43.60 44.16 43.22 43.11
45.57 45.82 45.76 45.51 45.97 45.77 47.40 47.55 47.41 46.53 45.08 45.05 44.50 42.66 41.02 39.67 40.46 40.28 40.32 43.78 42.79 42.61 42.94 42.58 43.10 42.90 42.13 40.72 40.32 41.20 40.53 40.60 40.94 42.86 44.14 45.77 46.14 45.43 44.13 44.31 43.98 38.85 40.37
47.43 44.24 43.16 45.60 45.15 46.16 46.35 45.67 45.86 46.15 44.60 44.11 44.07 44.00 43.62 43.24 43.35 43.17 43.87 43.43 43.56 43.52 43.22 43.05 43.13 42.85 41.80 41.55 40.18 40.42 39.11 39.44 39.24 40.25 41.53 43.42 45.14 46.25 44.11 44.34 43.90 43.88 44.32
48.87 47.98 40.77 45.46 44.63 44.31 44.49 44.20 44.17 44.23 43.94 43.54 43.77 43.57 34.28 41.42 42.77 42.72 42.53 42.62 43.10 43.65 43.68 43.64 43.14 42.38 41.06 40.37 40.31 39.91 38.80 39.41 38.88 38.43 39.52 41.73 43.82 46.39 47.52 46.41 45.26 44.43 44.02
46.17 43.98 45.65 45.51 44.13 44.00 43.95 43.75 43.47 43.22 43.17 42.72 42.97 43.17 35.91 43.20 43.03 42.94 42.73 42.68 43.25 43.91 44.79 43.55 43.32 42.51 40.95 39.21 39.54 38.21 38.35 38.41 38.79 38.07 38.41 39.70 42.73 45.40 45.80 45.75 44.78 44.74 43.91
43.80 44.50 45.31 44.77 43.77 40.54 43.60 43.20 42.98 42.95 42.40 42.44 42.68 42.62 42.61 42.67 42.76 42.85 42.80 42.35 42.92 43.67 44.74 43.79 43.94 41.56 40.32 38.99 37.58 37.83 36.66 35.78 34.85 35.73 37.21 37.46 40.29 42.60 43.85 44.51 45.34 44.79 45.14
44.26 44.96 44.77 44.54 43.45 43.55 42.90 42.86 43.27 39.35 42.01 42.25 42.30 42.44 42.67 42.58 42.57 42.63 41.94 40.99 41.60 42.76 43.52 43.06 40.99 39.50 39.24 37.51 35.99 36.11 35.18 33.69 33.44 34.31 37.33 35.99 37.76 39.93 43.03 44.88 46.74 46.27 45.73
44.66 45.26 44.34 44.16 43.28 43.22 42.83 43.01 42.33 41.96 41.84 41.80 41.92 42.26 42.69 42.89 41.96 40.51 39.81 39.35 39.81 41.03 41.00 39.99 39.48 38.54 36.96 36.17 34.83 33.80 32.37 31.18 32.20 32.04 34.63 36.46 38.10 40.61 42.22 45.54 48.47 48.73 47.42
44.54 45.53 46.14 45.45 44.17 43.61 43.45 42.20 41.97 41.63 41.34 42.03 42.50 42.34 42.53 41.43 39.79 38.81 38.08 37.34 37.44 38.12 38.47 38.52 37.88 37.22 36.00 34.62 33.06 30.85 30.98 30.85 31.06 31.09 32.35 35.83 40.90 43.96 45.29 46.57 48.12 49.29 49.25
MSLP
1025.73 1025.34 1024.87 1024.44 1024.08 1023.69 1023.24 1022.72 1022.15 1021.58 1021.08 1020.71 1020.23 1019.70 1019.24 1018.77 1018.25 1017.78 1017.41 1017.03 1016.64 1016.16 1015.58 1015.09 1014.49 1013.89 1013.30 1012.94 1012.65 1012.27 1012.11 1012.09 1011.88 1011.68 1011.93 1012.74 1012.81 1012.49 1012.47 1012.37 1012.20 1012.01 1011.96
1026.01 1025.61 1025.21 1024.82 1024.37 1023.93 1023.45 1022.84 1022.24 1021.77 1021.18 1020.79 1020.31 1019.91 1019.47 1019.00 1018.46 1018.01 1017.59 1017.21 1016.86 1016.45 1015.99 1015.55 1014.90 1014.18 1013.44 1013.00 1012.73 1012.45 1012.20 1011.94 1011.96 1011.93 1012.59 1013.22 1013.33 1013.15 1013.25 1012.99 1012.96 1012.40 1012.21
1026.10 1025.85 1025.54 1025.13 1024.70 1024.27 1023.77 1023.15 1022.54 1022.12 1021.51 1020.82 1020.39 1020.11 1019.69 1019.12 1018.70 1018.32 1018.00 1017.60 1017.21 1016.86 1016.35 1015.82 1015.09 1014.39 1013.77 1013.24 1012.85 1012.52 1012.17 1011.78 1011.75 1012.21 1013.09 1013.67 1013.80 1013.68 1014.02 1013.87 1013.56 1013.63 1013.69
1026.22 1026.04 1025.82 1025.44 1025.04 1024.63 1024.11 1023.50 1022.95 1022.35 1021.82 1021.24 1020.77 1020.36 1019.89 1019.38 1018.97 1018.64 1018.30 1017.92 1017.43 1016.92 1016.42 1015.98 1015.45 1014.83 1014.29 1013.71 1013.34 1013.01 1012.63 1012.32 1012.33 1012.63 1013.38 1013.97 1014.34 1014.64 1014.43 1014.38 1014.50 1014.64 1014.61
1026.36 1026.12 1025.95 1025.61 1025.23 1024.82 1024.28 1023.73 1023.09 1022.52 1022.12 1021.72 1021.17 1020.59 1020.09 1019.62 1019.38 1018.88 1018.47 1018.14 1017.75 1017.26 1016.70 1016.20 1015.71 1015.25 1014.76 1014.17 1013.90 1013.66 1013.21 1013.05 1013.06 1013.34 1013.89 1014.34 1014.71 1014.96 1015.14 1015.08 1014.95 1015.29 1015.94
1026.38 1026.16 1025.97 1025.66 1025.31 1024.94 1024.51 1024.04 1023.43 1022.93 1022.43 1021.90 1021.40 1020.96 1020.49 1020.07 1019.58 1019.07 1018.62 1018.30 1017.91 1017.62 1017.20 1016.64 1016.15 1015.73 1015.44 1015.04 1014.59 1014.22 1013.99 1013.91 1013.97 1014.13 1014.37 1014.60 1015.07 1015.29 1015.50 1015.54 1015.62 1015.80 1015.92
1026.28 1026.09 1025.90 1025.68 1025.39 1025.10 1024.73 1024.33 1023.91 1023.39 1022.80 1022.29 1021.77 1021.26 1020.87 1020.48 1019.93 1019.40 1018.95 1018.58 1018.25 1017.93 1017.60 1017.19 1016.76 1016.36 1015.98 1015.69 1015.45 1015.17 1014.88 1014.72 1014.67 1014.66 1014.84 1015.14 1015.24 1015.25 1015.36 1015.54 1015.69 1015.96 1016.21
1026.26 1026.11 1025.85 1025.62 1025.40 1025.20 1024.98 1024.69 1024.22 1023.77 1023.19 1022.66 1022.15 1021.59 1021.13 1020.75 1020.30 1019.79 1019.28 1018.84 1018.54 1018.29 1018.02 1017.65 1017.34 1016.93 1016.64 1016.37 1016.07 1015.84 1015.72 1015.55 1015.47 1015.38 1015.38 1015.49 1015.34 1015.29 1015.20 1015.31 1015.70 1016.18 1016.48
1026.27 1026.10 1025.87 1025.65 1025.50 1025.33 1025.13 1024.93 1024.53 1024.04 1023.48 1022.98 1022.44 1021.93 1021.51 1021.05 1020.59 1020.03 1019.56 1019.14 1018.87 1018.56 1018.34 1018.14 1017.84 1017.55 1017.21 1016.87 1016.62 1016.50 1016.41 1016.31 1016.09 1016.05 1016.04 1016.00 1015.75 1015.52 1015.40 1015.54 1016.11 1016.21 1016.65
1026.17 1026.03 1025.82 1025.58 1025.46 1025.39 1025.25 1024.99 1024.75 1024.37 1023.90 1023.26 1022.79 1022.30 1021.82 1021.36 1020.86 1020.41 1019.94 1019.55 1019.24 1018.97 1018.58 1018.39 1018.17 1017.92 1017.70 1017.29 1017.01 1016.94 1016.84 1016.94 1016.73 1016.61 1016.53 1016.33 1016.14 1016.03 1015.99 1015.97 1016.00 1016.07 1016.40
1026.05 1025.89 1025.80 1025.59 1025.40 1025.27 1025.06 1024.80 1024.57 1024.33 1023.90 1023.53 1023.09 1022.58 1022.17 1021.75 1021.19 1020.71 1020.36 1019.96 1019.73 1019.34 1019.02 1018.76 1018.55 1018.21 1017.86 1017.71 1017.41 1017.27 1017.31 1017.23 1017.19 1017.09 1017.03 1016.96 1016.90 1016.82 1016.64 1016.43 1016.21 1016.14 1016.37
1025.99 1025.84 1025.72 1025.59 1025.40 1025.23 1024.97 1024.76 1024.53 1024.30 1024.00 1023.70 1023.29 1022.82 1022.42 1022.00 1021.52 1021.12 1020.76 1020.33 1020.02 1019.67 1019.38 1019.10 1018.86 1018.57 1018.26 1017.91 1017.78 1017.64 1017.52 1017.42 1017.40 1017.30 1017.25 1017.23 1017.28 1017.38 1017.21 1017.07 1017.03 1016.94 1016.81
1025.94 1025.83 1025.68 1025.47 1025.26 1025.05 1024.90 1024.65 1024.49 1024.27 1024.10 1023.85 1023.63 1023.28 1022.88 1022.43 1021.95 1021.43 1021.09 1020.75 1020.23 1019.83 1019.61 1019.27 1019.00 1018.76 1018.52 1018.34 1018.16 1018.00 1017.86 1017.76 1017.67 1017.53 1017.51 1017.54 1017.57 1017.62 1017.56 1017.50 1017.40 1017.32 1017.27
1025.94 1025.82 1025.65 1025.44 1025.11 1024.70 1024.46 1024.35 1024.26 1024.21 1024.15 1024.02 1023.84 1023.61 1023.21 1022.76 1022.46 1022.07 1021.61 1021.11 1020.59 1020.12 1019.79 1019.51 1019.27 1019.04 1018.85 1018.69 1018.47 1018.33 1018.21 1018.13 1018.08 1018.04 1018.04 1018.10 1018.08 1018.07 1018.02 1017.95 1017.88 1017.82 1017.82
1025.92 1025.79 1025.57 1025.39 1025.11 1024.63 1024.21 1023.98 1023.95 1023.84 1023.89 1024.02 1023.99 1023.91 1023.53 1023.15 1022.96 1022.73 1022.26 1021.68 1021.17 1020.73 1020.21 1019.85 1019.65 1019.41 1019.19 1018.90 1018.65 1018.50 1018.38 1018.27 1018.21 1018.23 1018.21 1018.19 1018.20 1018.20 1018.21 1018.13 1018.16 1018.13 1018.25
1025.69 1025.55 1025.35 1025.14 1024.81 1024.42 1024.14 1023.77 1023.51 1023.74 1023.71 1023.86 1023.84 1023.81 1023.39 1023.10 1023.00 1022.62 1022.12 1021.92 1021.42 1021.03 1020.67 1020.51 1020.34 1020.04 1019.79 1019.50 1019.16 1018.83 1018.55 1018.43 1018.38 1018.32 1018.31 1018.29 1018.36 1018.41 1018.44 1018.43 1018.39 1018.36 1018.42
1025.50 1025.32 1025.09 1024.84 1024.58 1024.33 1024.06 1023.95 1023.83 1023.59 1023.52 1023.43 1023.27 1023.13 1023.21 1023.07 1022.80 1022.55 1022.23 1022.07 1021.69 1021.23 1021.14 1021.01 1020.85 1020.62 1020.36 1020.05 1019.70 1019.37 1018.96 1018.73 1018.48 1018.41 1018.38 1018.37 1018.40 1018.44 1018.41 1018.44 1018.40 1018.41 1018.52
1025.19 1025.01 1024.91 1024.64 1024.42 1024.20 1024.05 1023.93 1023.83 1023.80 1023.69 1023.45 1023.14 1023.13 1022.88 1022.81 1022.60 1022.49 1022.28 1022.07 1021.83 1021.59 1021.49 1021.34 1021.13 1020.91 1020.70 1020.46 1020.15 1019.83 1019.44 1019.14 1018.78 1018.46 1018.34 1018.34 1018.29 1018.29 1018.27 1018.29 1018.32 1018.34 1018.41
1024.88 1024.68 1024.53 1024.39 1024.24 1024.04 1023.92 1023.74 1023.70 1023.71 1023.64 1023.50 1023.32 1023.14 1022.99 1022.79 1022.43 1022.34 1022.28 1022.25 1022.12 1021.93 1021.75 1021.53 1021.34 1021.14 1020.94 1020.78 1020.54 1020.24 1019.92 1019.61 1019.27 1018.88 1018.60 1018.27 1018.06 1018.01 1018.05 1018.08 1018.15 1018.26 1018.36
1024.48 1024.35 1024.36 1024.29 1024.21 1024.02 1023.94 1023.83 1023.64 1023.58 1023.61 1023.54 1023.39 1023.26 1023.17 1022.95 1022.72 1022.62 1022.48 1022.29 1022.08 1021.94 1021.80 1021.64 1021.48 1021.38 1021.24 1020.99 1020.76 1020.49 1020.23 1019.88 1019.56 1019.29 1018.91 1018.57 1018.19 1017.92 1017.90 1017.94 1018.01 1018.12 1018.17
1024.30 1024.28 1024.11 1024.07 1024.12 1024.13 1024.13 1024.00 1023.91 1023.79 1023.74 1023.61 1023.45 1023.35 1023.36 1023.38 1023.08 1022.87 1022.61 1022.37 1022.15 1021.85 1021.70 1021.57 1021.47 1021.44 1021.34 1021.18 1021.01 1020.71 1020.42 1020.16 1019.92 1019.63 1019.25 1018.77 1018.34 1017.84 1017.65 1017.66 1017.71 1017.82 1017.91
1024.19 1024.18 1024.01 1023.97 1024.04 1024.09 1024.11 1024.11 1024.03 1023.96 1023.91 1023.82 1023.67 1023.45 1023.32 1023.25 1023.03 1022.82 1022.53 1022.23 1021.94 1021.69 1021.44 1021.39 1021.31 1021.32 1021.36 1021.36 1021.18 1020.99 1020.73 1020.40 1020.16 1019.90 1019.48 1018.96 1018.49 1018.02 1017.69 1017.53 1017.51 1017.53 1017.61
1024.01 1023.91 1023.80 1023.80 1023.92 1024.05 1024.05 1024.05 1024.02 1024.00 1023.99 1023.96 1023.77 1023.51 1023.37 1023.20 1022.91 1022.69 1022.51 1022.32 1021.99 1021.63 1021.52 1021.51 1021.42 1021.51 1021.53 1021.45 1021.36 1021.16 1020.92 1020.71 1020.49 1020.16 1019.68 1019.11 1018.68 1018.21 1017.83 1017.49 1017.27 1017.25 1017.30
1023.80 1023.63 1023.43 1023.41 1023.69 1023.74 1023.89 1023.95 1024.00 1024.12 1024.02 1023.92 1023.76 1023.59 1023.36 1023.13 1023.01 1022.86 1022.72 1022.54 1022.18 1021.94 1021.82 1021.77 1021.83 1021.83 1021.65 1021.52 1021.47 1021.25 1021.09 1021.00 1020.64 1020.15 1019.64 1019.15 1018.65 1018.09 1017.67 1017.36 1016.95 1016.82 1016.82
1023.60 1023.43 1023.35 1023.39 1023.55 1023.69 1023.84 1023.90 1024.01 1024.05 1023.99 1023.89 1023.71 1023.55 1023.36 1023.24 1023.16 1023.13 1023.04 1022.91 1022.65 1022.27 1022.21 1022.18 1022.09 1021.99 1021.89 1021.77 1021.71 1021.49 1021.22 1020.92 1020.58 1020.16 1019.56 1019.01 1018.50 1017.99 1017.61 1017.05 1016.51 1016.29 1016.33
1023.40 1023.23 1023.16 1023.27 1023.50 1023.69 1023.82 1023.95 1024.03 1024.06 1023.99 1023.90 1023.80 1023.65 1023.54 1023.50 1023.48 1023.45 1023.36 1023.27 1023.07 1022.81 1022.66 1022.49 1022.33 1022.17 1021.97 1021.79 1021.71 1021.61 1021.21 1020.72 1020.30 1019.81 1019.34 1018.70 1018.11 1017.54 1017.12 1016.53 1016.01 1015.72 1015.71
Wind_Speed
5 5 7 8 8 7 7 7 8 9 9 8 8 8 8 8 8 7 7 6 6 7 8 8 9 8 6 5 4 3 2 1 2 3 4 7 5 8 8 8 9 8 12
4 5 7 6 7 7 7 8 8 8 8 8 8 8 9 8 9 9 9 8 8 9 9 9 9 7 8 6 5 4 3 3 3 5 5 3 5 7 6 9 8 9 13
4 5 7 7 6 7 7 9 8 9 9 9 9 9 9 8 9 9 9 10 9 8 8 7 8 8 8 7 6 5 4 3 4 5 7 4 4 4 6 6 10 10 10
4 5 5 6 6 6 7 8 8 8 8 9 9 9 9 9 9 8 9 9 10 10 9 8 8 9 8 8 6 6 6 5 6 9 8 5 4 4 3 5 7 7 9
4 5 5 5 5 5 7 8 8 8 8 8 9 9 9 8 7 7 6 8 9 11 11 9 9 13 17 15 5 6 7 6 7 7 6 5 3 3 3 3 5 7 7
4 4 4 5 5 5 6 7 7 8 8 8 9 8 9 7 14 14 10 6 9 11 11 10 9 11 12 15 17 16 11 6 6 3 2 3 3 2 1 2 4 5 3
3 4 4 4 5 6 6 6 7 8 6 7 8 9 8 9 16 14 13 6 7 8 10 9 8 8 9 8 11 13 16 16 11 3 4 3 2 2 3 2 1 2 3
3 4 4 4 5 5 5 6 6 6 7 6 7 8 7 7 14 14 12 6 6 7 8 9 8 8 8 7 7 9 10 9 8 7 8 5 3 1 1 2 3 5 5
3 4 4 4 4 4 5 5 5 6 6 6 5 7 8 9 13 13 11 7 6 7 7 8 8 8 11 7 5 7 7 7 7 12 11 10 12 12 5 4 4 5 2
3 4 4 2 2 3 4 5 3 3 5 5 7 7 10 10 10 13 10 6 7 6 7 7 12 10 8 8 5 4 6 5 5 6 5 8 10 10 12 5 2 3 4
3 3 3 3 2 2 3 2 3 3 4 7 7 6 6 8 10 14 12 4 6 5 5 5 5 10 9 8 7 5 3 2 4 4 5 5 6 7 6 6 7 3 2
2 3 3 4 3 2 3 3 3 3 4 5 6 7 6 8 9 12 13 9 8 5 5 4 4 7 8 9 6 6 6 3 3 3 4 5 6 6 6 6 7 6 6
2 3 3 4 4 4 4 4 3 4 3 3 3 4 5 6 7 12 13 11 9 3 4 5 7 8 7 5 8 8 6 3 3 4 4 4 5 4 3 3 6 8 9
4 3 3 4 5 4 3 3 2 2 2 3 4 4 5 5 6 6 6 6 7 6 7 5 6 5 6 4 3 4 3 2 2 2 2 1 1 1 2 2 3 4 5
3 4 4 3 4 5 4 3 2 3 2 1 3 3 4 5 6 7 5 5 5 5 5 5 5 5 5 5 3 3 2 2 2 1 1 1 2 1 2 2 1 3 4
3 3 3 3 3 3 3 4 2 5 5 5 5 4 3 5 7 9 8 9 10 9 3 5 6 5 5 6 5 5 3 3 2 1 1 1 1 2 3 1 2 3 3
3 4 3 4 3 3 2 3 3 3 5 2 2 3 2 6 7 8 9 8 9 6 4 5 4 5 5 5 5 4 4 4 1 1 1 1 2 1 1 0 1 1 1
3 6 3 3 3 3 2 2 2 2 2 3 4 5 8 7 6 8 9 5 4 5 3 3 4 5 5 6 5 5 4 5 4 2 0 1 2 1 1 1 1 1 1
3 3 3 3 3 3 3 3 2 3 2 2 2 4 5 7 6 6 7 3 2 3 4 4 3 3 4 5 4 5 5 4 4 4 4 3 2 2 1 1 1 1 2
3 6 4 3 3 3 3 4 3 2 3 3 3 3 4 4 3 3 4 3 3 3 3 3 4 3 4 5 5 4 4 5 4 3 3 4 4 3 2 2 3 2 2
2 3 5 3 2 2 3 3 3 3 3 4 4 2 3 2 3 3 3 3 3 3 3 3 3 2 3 4 5 5 5 5 5 4 4 4 4 2 3 3 3 3 2
3 3 3 2 1 1 2 2 3 3 3 4 4 3 6 2 2 3 3 3 3 3 2 3 2 1 3 4 4 5 6 6 5 5 5 5 4 3 2 2 3 3 2
3 3 3 2 2 1 1 2 2 2 3 3 4 3 3 3 3 3 3 4 5 4 2 3 3 4 4 4 4 4 5 5 5 5 5 5 5 4 3 2 3 3 4
3 4 5 3 3 3 2 2 1 3 3 3 4 3 3 3 3 4 3 4 5 5 4 3 4 6 6 5 5 4 4 6 6 6 7 6 6 5 3 4 4 6 5
4 4 3 3 3 2 2 1 1 2 3 4 3 3 4 3 2 3 4 4 5 5 5 4 4 6 8 9 8 10 8 8 8 7 6 6 7 7 6 6 5 5 7
4 5 3 0 1 1 1 1 2 3 3 4 3 3 3 2 3 3 4 5 5 5 7 5 7 9 9 6 9 11 10 10 10 10 7 5 6 5 5 6 6 3 5
Wind_Direction
343 336 338 349 347 342 341 329 328 332 341 341 343 343 343 340 344 347 349 348 345 351 355 354 349 343 349 349 345 331 289 234 257 77 77 77 50 72 68 58 59 60 78
341 350 345 343 349 350 345 336 340 341 347 348 348 348 344 348 348 353 351 352 3 1 356 7 352 344 352 349 349 338 294 236 215 122 88 81 54 49 71 86 82 70 70
360 358 351 347 347 347 345 342 346 346 350 355 356 355 350 346 354 358 4 2 5 2 356 4 345 354 358 359 352 4 352 349 136 122 112 88 62 48 56 71 79 79 80
354 357 349 347 348 351 338 347 350 346 351 351 354 354 355 349 3 4 18 8 5 1 359 2 351 2 6 8 12 5 7 48 87 108 104 97 75 55 48 81 87 78 74
8 4 357 345 351 354 349 352 344 352 351 351 358 359 358 7 357 357 13 9 13 8 6 3 5 25 28 33 37 22 20 44 65 84 93 97 80 54 54 357 78 90 78
23 18 5 1 354 354 346 348 358 356 354 0 3 3 7 7 356 6 9 351 2 15 11 1 2 13 26 34 41 52 55 50 51 74 55 83 87 96 105 77 113 128 108
16 1 5 357 1 352 347 351 355 341 340 352 353 355 358 11 1 360 12 13 8 8 11 8 5 10 19 34 46 52 51 56 59 58 87 62 121 139 151 126 99 60 77
1 349 353 353 353 356 358 357 347 341 344 343 344 347 350 359 2 357 354 5 17 14 8 0 10 3 16 38 53 49 48 48 42 57 67 56 49 118 186 130 108 104 102
347 346 349 358 0 2 3 344 336 344 349 339 331 351 357 359 358 354 359 355 4 6 11 11 12 11 7 30 47 61 50 49 46 58 60 59 51 52 81 111 126 128 97
326 330 328 329 7 342 329 327 326 326 333 340 352 354 355 353 351 0 6 0 7 359 7 8 6 7 15 23 58 77 65 31 31 41 28 35 35 43 51 53 164 146 139
311 331 334 344 325 341 324 314 316 341 1 6 352 338 344 347 347 358 2 8 4 356 5 357 360 1 11 34 42 55 58 49 48 59 56 49 48 44 39 34 34 46 114
321 342 334 324 320 324 318 323 330 350 6 1 355 354 352 353 354 355 357 5 356 10 2 347 355 12 14 21 40 47 59 60 61 61 63 55 53 52 50 53 54 61 57
316 317 316 316 313 302 293 299 318 334 349 355 1 346 345 348 355 351 347 348 355 9 357 2 9 16 16 27 31 37 41 33 28 44 42 38 37 48 43 60 73 69 64
294 295 303 315 317 302 284 260 273 304 344 352 357 342 334 350 360 345 343 345 348 14 360 1 354 11 32 19 22 19 27 44 49 53 43 42 54 51 52 29 53 59 63
284 293 299 304 307 306 307 282 262 256 197 358 330 320 327 342 345 316 296 354 344 352 355 15 20 14 12 4 4 18 22 31 47 46 59 70 59 57 37 35 62 84 95
303 302 290 303 302 299 328 335 316 270 257 244 264 237 307 268 320 343 1 1 3 360 7 20 17 8 9 359 360 354 357 27 24 49 68 78 82 112 110 83 88 95 102
259 286 311 319 320 317 333 353 343 349 58 211 215 254 232 272 333 358 0 4 9 10 27 14 14 12 1 360 352 346 346 348 32 63 71 103 122 131 169 98 85 109 133
245 261 280 292 300 315 306 308 309 324 324 316 324 332 346 6 1 1 355 357 7 17 11 0 359 9 6 5 356 355 347 353 359 353 59 167 169 172 177 158 116 121 129
219 255 267 308 315 291 264 266 271 293 296 280 309 328 349 356 19 9 358 24 348 358 359 358 356 3 3 3 352 356 348 344 336 344 346 330 266 233 219 200 160 166 177
235 258 269 297 320 326 322 319 298 272 304 324 317 320 336 337 4 349 349 349 352 359 353 1 358 1 354 352 352 345 352 356 346 339 331 330 320 245 219 211 191 189 190
290 279 279 246 288 345 328 333 338 348 339 334 325 326 330 306 330 327 325 335 329 327 351 349 359 3 358 345 347 345 347 349 347 331 320 314 315 300 220 217 199 190 171
276 292 291 262 255 338 330 341 342 343 343 338 333 312 331 310 316 316 314 314 298 284 276 307 342 21 14 3 346 341 336 340 341 336 321 316 324 325 293 223 191 183 174
266 286 242 232 211 244 277 290 311 321 326 328 327 320 325 310 305 308 322 342 341 326 332 349 360 7 6 1 349 338 335 336 325 317 311 307 309 310 328 284 228 205 201
258 277 240 223 210 225 254 290 316 318 310 310 317 319 317 319 329 349 13 356 360 8 6 12 27 12 355 352 346 350 348 337 317 300 304 286 292 302 308 297 251 226 221
272 288 269 231 210 223 252 312 13 334 328 316 322 328 333 347 22 16 11 2 354 14 21 15 7 356 355 351 352 346 339 326 320 307 293 278 274 278 269 284 271 229 223
280 278 276 223 136 122 67 18 350 349 341 335 344 333 345 19 31 16 2 359 353 354 351 351 352 353 355 357 352 337 331 336 336 323 305 273 283 281 273 297 289 241 230